AF6GL Weather Reports


Display with metric or nautical units.
time (UTC)temp
F
wind
direction
speed
MPH
gust
MPH
rain 1hr
in
rain 24hr
in
rain mn
in
humidity
%
barometer
mb
20171020140456 64 211 1.0 4.0 0.00 0.00 0.00 87 1012.2
20171020135450 63 139 0.0 2.0 0.00 0.00 0.00 89 1012.2
20171020134449 63 164 0.0 2.0 0.00 0.00 0.00 89 1012.1
20171020133448 63 176 0.0 2.0 0.00 0.00 0.00 89 1012.1
20171020132453 64 238 1.0 3.0 0.00 0.00 0.00 89 1012.0
20171020131449 64 161 2.0 5.0 0.00 0.00 0.00 89 1011.9
20171020130449 64 145 2.0 5.0 0.00 0.00 0.00 90 1011.7
20171020125450 64 123 1.0 4.0 0.00 0.00 0.00 90 1011.6
20171020124447 63 153 2.0 4.0 0.00 0.00 0.00 90 1011.5
20171020123446 63 151 2.0 4.0 0.00 0.00 0.00 90 1011.5
20171020122447 63 144 2.0 5.0 0.00 0.00 0.00 90 1011.3
20171020121448 63 153 2.0 6.0 0.00 0.00 0.00 89 1011.2
20171020120446 63 133 3.0 6.0 0.00 0.00 0.00 90 1011.1
20171020115452 63 174 3.0 5.0 0.00 0.00 0.00 90 1011.1
20171020114444 63 138 2.0 5.0 0.00 0.00 0.00 91 1011.0
20171020113447 63 158 1.0 4.0 0.00 0.00 0.00 91 1011.1
20171020112444 63 151 1.0 3.0 0.00 0.00 0.00 91 1011.2
20171020111446 63 144 1.0 4.0 0.00 0.00 0.00 91 1011.2
20171020110444 63 205 1.0 3.0 0.00 0.00 0.00 92 1011.1
20171020105449 63 162 2.0 4.0 0.00 0.00 0.00 92 1011.0
20171020104446 63 158 1.0 3.0 0.00 0.00 0.00 92 1011.0
20171020103445 62 188 0.0 0.0 0.00 0.00 0.00 92 1011.1
20171020102446 63 204 0.0 0.0 0.00 0.00 0.00 92 1011.4
20171020101445 63 219 0.0 0.0 0.00 0.00 0.00 92 1011.3
20171020100446 63 147 0.0 0.0 0.00 0.00 0.00 92 1011.4
20171020095446 63 147 0.0 0.0 0.00 0.00 0.00 93 1011.5
20171020094543 63 261 0.0 0.0 0.00 0.00 0.00 93 1011.6
20171020093446 62 171 0.0 0.0 0.00 0.00 0.00 93 1011.4
20171020092446 62 117 0.0 0.0 0.00 0.00 0.00 93 1011.5
20171020091446 62 138 0.0 0.0 0.00 0.00 0.00 93 1011.6
20171020090446 62 110 0.0 0.0 0.00 0.00 0.00 92 1011.6
20171020085445 62 140 0.0 0.0 0.00 0.00 0.00 92 1011.7
20171020084446 62 140 0.0 0.0 0.00 0.00 0.00 92 1011.8
20171020083446 62 140 0.0 0.0 0.00 0.00 0.00 93 1011.8
20171020082444 62 141 0.0 0.0 0.00 0.00 0.00 92 1011.9
20171020081446 62 141 0.0 0.0 0.00 0.00 0.00 93 1011.8
20171020080446 62 138 0.0 0.0 0.00 0.00 0.00 92 1011.7
20171020075445 62 96 0.0 0.0 0.00 0.00 0.00 91 1011.5
20171020074444 63 96 0.0 0.0 0.00 0.00 0.00 91 1011.5
20171020073455 63 96 0.0 0.0 0.00 0.00 0.00 90 1011.2
20171020072442 63 96 0.0 0.0 0.00 0.00 0.00 90 1011.3
20171020071442 64 96 0.0 0.0 0.00 0.00 0.00 89 1011.3
20171020070444 64 95 0.0 0.0 0.00 0.00 0.00 90 1011.3
20171020065442 64 126 0.0 0.0 0.00 0.00 0.00 90 1011.3
20171020064443 64 126 0.0 0.0 0.00 0.00 0.00 90 1011.3
20171020063442 64 126 0.0 0.0 0.00 0.00 0.00 90 1011.3
20171020062440 65 126 0.0 0.0 0.00 0.00 0.00 90 1011.4
20171020061441 64 124 0.0 0.0 0.00 0.00 0.00 90 1011.5
20171020060441 64 124 0.0 0.0 0.00 0.00 0.00 90 1011.7
20171020055441 64 124 0.0 0.0 0.00 0.00 0.00 90 1011.7
20171020054440 64 124 0.0 0.0 0.00 0.00 0.00 90 1011.8
20171020053438 64 111 0.0 0.0 0.00 0.00 0.00 91 1011.6
20171020052439 64 106 0.0 0.0 0.00 0.00 0.00 91 1011.5
20171020051439 64 108 0.0 0.0 0.00 0.00 0.00 91 1011.5
20171020050438 64 108 0.0 1.0 0.00 0.00 0.00 91 1011.4
20171020045434 64 129 0.0 0.0 0.00 0.00 0.00 90 1011.5
20171020044434 64 129 0.0 0.0 0.00 0.00 0.00 90 1011.3
20171020043437 64 129 0.0 0.0 0.00 0.00 0.00 90 1011.1
20171020042435 64 129 0.0 0.0 0.00 0.00 0.00 90 1011.0
20171020041432 65 131 0.0 0.0 0.00 0.00 0.00 89 1010.9
20171020040432 65 140 0.0 0.0 0.00 0.00 0.00 89 1011.0
20171020035432 65 141 0.0 2.0 0.00 0.00 0.00 88 1011.0
20171020034436 66 140 1.0 3.0 0.00 0.00 0.00 88 1011.1
20171020033432 66 191 1.0 2.0 0.00 0.00 0.00 87 1010.9
20171020032431 66 219 0.0 2.0 0.00 0.00 0.00 87 1010.7
20171020031429 66 179 0.0 1.0 0.00 0.00 0.00 87 1010.6
20171020030429 66 128 0.0 1.0 0.00 0.00 0.00 87 1010.3
20171020025431 66 225 0.0 0.0 0.00 0.00 0.00 86 1010.5
20171020024429 66 225 0.0 1.0 0.00 0.00 0.00 86 1010.4
20171020023428 66 231 0.0 0.0 0.00 0.00 0.00 85 1010.6
20171020022427 66 232 0.0 0.0 0.00 0.00 0.00 84 1010.3
20171020021429 66 148 0.0 0.0 0.00 0.00 0.00 85 1010.1
20171020020428 66 149 1.0 2.0 0.00 0.00 0.00 84 1010.0
20171020015423 67 168 0.0 1.0 0.00 0.00 0.00 83 1010.0
20171020014423 67 177 0.0 1.0 0.00 0.00 0.00 83 1009.8
20171020013423 67 165 0.0 0.0 0.00 0.00 0.00 82 1009.7
20171020012420 67 219 0.0 2.0 0.00 0.00 0.00 81 1009.6
20171020011421 68 213 0.0 2.0 0.00 0.00 0.00 80 1009.5
20171020010423 68 153 0.0 3.0 0.00 0.00 0.00 80 1009.5
20171020005419 68 229 0.0 1.0 0.00 0.00 0.00 80 1009.5
20171020004420 69 276 1.0 5.0 0.00 0.00 0.00 79 1009.4
20171020003421 69 233 2.0 3.0 0.00 0.00 0.00 79 1009.5
20171020002415 69 242 3.0 5.0 0.00 0.00 0.00 78 1009.6
20171020001415 69 281 2.0 6.0 0.00 0.00 0.00 78 1009.5
20171020000415 69 232 3.0 7.0 0.00 0.00 0.00 77 1009.4
20171019235415 69 245 2.0 6.0 0.00 0.00 0.00 78 1009.5
20171019234416 70 262 2.0 6.0 0.00 0.00 0.00 77 1009.5
20171019233416 70 219 3.0 8.0 0.00 0.00 0.00 77 1009.6
20171019232416 70 290 5.0 9.0 0.00 0.00 0.00 78 1009.7
20171019231415 70 288 5.0 11.0 0.00 0.00 0.00 77 1009.9
20171019230415 71 226 4.0 7.0 0.00 0.00 0.00 76 1009.7
20171019225416 71 264 5.0 10.0 0.00 0.00 0.00 76 1009.8
20171019224416 71 305 4.0 9.0 0.00 0.00 0.00 74 1009.6
20171019223416 72 158 3.0 7.0 0.00 0.00 0.00 75 1009.5
20171019222417 72 226 6.0 10.0 0.00 0.00 0.00 73 1009.6
20171019221415 72 256 5.0 11.0 0.00 0.00 0.00 73 1009.5
20171019220418 72 264 4.0 9.0 0.00 0.00 0.00 72 1009.3
20171019215415 72 253 3.0 8.0 0.00 0.00 0.00 73 1009.2
20171019214415 72 229 5.0 9.0 0.00 0.00 0.00 74 1009.2
20171019213415 72 226 6.0 9.0 0.00 0.00 0.00 74 1009.5
20171019212415 72 277 5.0 11.0 0.00 0.00 0.00 74 1009.4
20171019211417 72 291 6.0 12.0 0.00 0.00 0.00 72 1009.6
20171019210415 73 278 5.0 10.0 0.00 0.00 0.00 71 1009.5
20171019205413 72 295 5.0 9.0 0.00 0.00 0.00 72 1009.6
20171019204418 73 255 4.0 8.0 0.00 0.00 0.00 71 1009.5
20171019203413 73 286 3.0 8.0 0.00 0.00 0.00 71 1009.6
20171019202413 73 183 4.0 11.0 0.00 0.00 0.00 71 1009.8
20171019201413 73 259 4.0 9.0 0.00 0.00 0.00 71 1010.0
20171019200415 73 250 4.0 11.0 0.00 0.00 0.00 71 1010.2
20171019195414 73 289 4.0 10.0 0.00 0.00 0.00 70 1010.5
20171019194416 72 218 5.0 9.0 0.00 0.00 0.00 69 1010.6
20171019193411 72 283 3.0 8.0 0.00 0.00 0.00 71 1010.7
20171019192413 73 238 3.0 8.0 0.00 0.00 0.00 69 1010.7
20171019191411 73 211 2.0 5.0 0.00 0.00 0.00 69 1010.8
20171019190411 72 271 4.0 9.0 0.00 0.00 0.00 71 1010.9
20171019185411 72 219 4.0 8.0 0.00 0.00 0.00 72 1011.1
20171019184412 71 295 4.0 8.0 0.00 0.00 0.00 71 1011.2
20171019183409 71 198 3.0 7.0 0.00 0.00 0.00 72 1011.3
20171019182413 72 243 2.0 6.0 0.00 0.00 0.00 70 1011.4
20171019181409 72 156 1.0 4.0 0.00 0.00 0.00 71 1011.3
20171019180411 71 248 2.0 7.0 0.00 0.00 0.00 72 1011.3
20171019175415 71 167 1.0 6.0 0.00 0.00 0.00 73 1011.4
20171019174407 70 174 3.0 7.0 0.00 0.00 0.00 73 1011.5
20171019173407 70 203 2.0 8.0 0.00 0.00 0.00 74 1011.6
20171019172408 69 315 2.0 4.0 0.00 0.00 0.00 78 1011.5
20171019171409 69 288 1.0 5.0 0.00 0.00 0.00 76 1011.6
20171019170406 69 326 0.0 1.0 0.00 0.00 0.00 78 1011.5
20171019165406 68 66 0.0 2.0 0.00 0.00 0.00 78 1011.4
20171019164403 68 52 1.0 3.0 0.00 0.00 0.00 78 1011.6
20171019163408 68 60 1.0 3.0 0.00 0.00 0.00 79 1011.5
20171019162416 68 354 1.0 4.0 0.00 0.00 0.00 79 1011.2
20171019161405 67 69 1.0 4.0 0.00 0.00 0.00 80 1011.4
20171019160404 67 56 2.0 5.0 0.00 0.00 0.00 81 1011.4
20171019155403 67 51 1.0 3.0 0.00 0.00 0.00 81 1011.2
20171019154401 67 37 1.0 4.0 0.00 0.00 0.00 81 1011.3
20171019153401 66 37 1.0 4.0 0.00 0.00 0.00 82 1011.1
20171019152401 65 56 1.0 3.0 0.00 0.00 0.00 82 1011.1
20171019151402 65 51 1.0 3.0 0.00 0.00 0.00 83 1011.0
20171019150359 65 53 1.0 4.0 0.00 0.00 0.00 83 1010.7
20171019145400 65 54 1.0 3.0 0.00 0.00 0.00 83 1010.7
20171019144359 65 68 1.0 2.0 0.00 0.00 0.00 83 1010.5
20171019143357 65 73 1.0 3.0 0.00 0.00 0.00 83 1010.5
20171019142357 65 87 0.0 2.0 0.00 0.00 0.00 83 1010.5
20171019141358 65 122 0.0 2.0 0.00 0.00 0.00 83 1010.6